Skip Page Navigation
NASA JPL Caltech
NASA Logo - Jet Propulsion Laboratory + View the NASA Portal
+ Center for Near-Earth Object Studies
JPL Home Earth Solar System Stars & Galaxies Technology
JPL Solar System Dynamics
BODIES ORBITS EPHEMERIDES TOOLS PHYSICAL DATA DISCOVERY FAQ SITE MAP
IMPORTANT: The SSD Announcement email list is now available. Major changes are coming in the near future, including possible hostname and/or URL changes. To be notified of such changes, subscribe to this email list.

Please visit this page for more details.


JPL Small-Body Database Browser
Search: [ help ]  
324603 (2006 YB8)
Classification: Main-belt Asteroid          SPK-ID: 2324603
Ephemeris | Orbit Diagram | Orbital Elements | Mission Design | Physical Parameters | Discovery Circumstances | Close-Approach Data ]

[ show orbit diagram ]
Orbital Elements at Epoch 2458600.5 (2019-Apr-27.0) TDB
Reference: JPL 10 (heliocentric ecliptic J2000)
 Element Value Uncertainty (1-sigma)   Units 
e .06515508536463326 9.741e-08  
a 2.564082856890877 2.8291e-08 au
q 2.397019819468159 2.6156e-07 au
i 5.335739652665414 6.9357e-06 deg
node 108.8604681277656 8.262e-05 deg
peri 220.1039971786853 9.8238e-05 deg
M 143.4706714305446 4.9605e-05 deg
tp 2458002.835941715785
(2017-Sep-06.33594172)
0.00020951 TDB
period 1499.672782157974
4.11
2.482e-05
6.795e-08
d
yr
n .2400523662781778 3.9729e-09 deg/d
Q 2.731145894313594 3.0134e-08 au
  Orbit Determination Parameters
   # obs. used (total)      116  
   data-arc span      5814 days (15.92 yr)  
   first obs. used      2001-10-15  
   last obs. used      2017-09-15  
   planetary ephem.      DE431  
   SB-pert. ephem.      SB431-N16  
   condition code      0  
   norm. resid. RMS      .65983  
   source      ORB  
   producer      Otto Matic  
   solution date      2019-Jul-14 13:00:49  

Additional Information
 Earth MOID = 1.38709 au 
 Jupiter MOID = 2.47816 au 
 T_jup = 3.424 
[ show covariance matrix ]

Ephemeris | Orbit Diagram | Orbital Elements | Mission Design | Physical Parameters | Discovery Circumstances | Close-Approach Data ]

Physical Parameter Table
Parameter Symbol Value Units Sigma Reference Notes
absolute magnitude H 17.0   n/a MPO418667  

324603 (2006 YB8)          Discovered 2006-Dec-20 by Mt. Lemmon Survey at Mount Lemmon
Reference: 20120406/Numbers.arcLast Updated: 2012-04-09

[ show close-approach data ]
Ephemeris | Orbit Diagram | Orbital Elements | Mission Design | Physical Parameters | Discovery Circumstances | Close-Approach Data ]
ABOUT SSD CREDITS/AWARDS PRIVACY/COPYRIGHT GLOSSARY LINKS
FirstGov 2019-Oct-14 17:05 UT
(server date/time)  
NASA Home Page
Site Manager:   Ryan S. Park
Webmaster  Alan B. Chamberlin